This is the latest recevied weather packets stored in our database for station/object XW7RMR. If no packets are shown the sender has not sent any weather packets the latest 10 day(s).
| Time | Temp. | Humidity | Pressure | Rain* | Wind** | Luminosity | Snow |
|---|---|---|---|---|---|---|---|
| 1777558628 | 9.44° C | 92% | 1017.9 hPa | 0 mm | - | 73 W/m² | - |
| 1777558323 | 8.89° C | 93% | 1017.8 hPa | 0 mm | - | 64 W/m² | - |
| 1777558021 | 8.89° C | 94% | 1017.8 hPa | 0 mm | - | 57 W/m² | - |
| 1777557716 | 8.89° C | 94% | 1017.9 hPa | 0 mm | - | 47 W/m² | - |
| 1777557413 | 8.33° C | 95% | 1017.8 hPa | 0 mm | - | 52 W/m² | - |
| 1777557110 | 8.33° C | 96% | 1017.9 hPa | 0 mm | - | 44 W/m² | - |
| 1777556805 | 7.78° C | 97% | 1017.8 hPa | 0 mm | - | 37 W/m² | - |
| 1777556502 | 7.78° C | 98% | 1017.9 hPa | 0 mm | - | 31 W/m² | - |
| 1777556201 | 8.33° C | 98% | 1017.8 hPa | 0 mm | - | 26 W/m² | - |
| 1777555898 | 7.78° C | 98% | 1017.8 hPa | 0 mm | - | 24 W/m² | - |
| 1777555593 | 7.78° C | 98% | 1017.9 hPa | 0 mm | - | 18 W/m² | - |
| 1777555291 | 7.22° C | 98% | 1017.9 hPa | 0 mm | - | 14 W/m² | - |
| 1777554987 | 7.22° C | 98% | 1017.8 hPa | 0 mm | - | 10 W/m² | - |
| 1777554684 | 7.22° C | 98% | 1017.7 hPa | 0 mm | - | 7 W/m² | - |
| 1777554381 | 7.78° C | 98% | 1017.8 hPa | 0 mm | - | 5 W/m² | - |
| 1777554077 | 7.78° C | 98% | 1017.7 hPa | 0 mm | - | 3 W/m² | - |
| 1777553774 | 7.78° C | 98% | 1017.8 hPa | 0 mm | - | 1 W/m² | - |
| 1777553471 | 7.22° C | 98% | 1017.9 hPa | 0 mm | - | 1 W/m² | - |
| 1777553167 | 7.78° C | 98% | 1017.9 hPa | 0 mm | - | 0 W/m² | - |
| 1777552862 | 7.78° C | 98% | 1017.7 hPa | 0 mm | - | 0 W/m² | - |
| 1777552557 | 7.78° C | 98% | 1017.8 hPa | 0 mm | - | 0 W/m² | - |
| 1777552254 | 7.78° C | 98% | 1017.7 hPa | 0 mm | - | 0 W/m² | - |
| 1777551951 | 7.78° C | 98% | 1017.8 hPa | 0 mm | - | 0 W/m² | - |
| 1777551648 | 7.78° C | 98% | 1017.9 hPa | 0 mm | - | 0 W/m² | - |
| 1777551346 | 7.78° C | 98% | 1017.8 hPa | 0 mm | - | 0 W/m² | - |
* Rain latest hour (hover to see other rain measurements)
** Current wind speed in m/s (hover to see current wind gust speed)